Location: Famechon
(49.7599°N, 2.0615°E)
Time: 21:54:42
(UTC+00:00)

Cosmos 841 Rocket - Pass Details

Date: 03 February 2023
Orbit: 746 x 771 km, 74.0° (Epoch: 21 March)

Event Time Altitude Azimuth Distance (km) Brightness Sun altitude
Rises 18:28:57 0° 337° (NNW) 3,258 7.0 -16.2°
Reaches altitude 10° 18:31:22 10° 340° (NNW) 2,327 6.2 -16.6°
Maximum altitude 18:36:39 69° 64° (ENE) 826 3.4 -17.4°
Drops below altitude 10° 18:41:52 10° 148° (SSE) 2,303 5.7 -18.3°
Enters shadow 18:42:41 - 149° (SSE) 2,616 6.0 -18.4°
